Location: Fontevrault
(47.1823°N, 0.0493°E)
Time: 02:33:38
(UTC+00:00)

Meteor 1-21 Rocket - Pass Details

Date: 29 October 2021
Orbit: 834 x 907 km, 81.2° (Epoch: 07 December)

Event Time Altitude Azimuth Distance (km) Brightness Sun altitude
Rises 04:35:29 0° 140° (SE) 3,408 7.9 -21.4°
Reaches altitude 10° 04:38:43 10° 121° (ESE) 2,491 7.4 -20.8°
Maximum altitude 04:42:12 17° 82° (E) 2,059 7.2 -20.3°
Drops below altitude 10° 04:45:43 10° 44° (NE) 2,533 7.3 -19.7°
Sets 04:49:02 0° 26° (NNE) 3,492 7.8 -19.1°
